Location: Bas-Clignon
(44.2000°N, 6.6333°E)
Time: 03:11:51
(UTC+00:00)

Cosmos 1461 - Pass Details

Date: 03 February 2023
Orbit: 492 x 644 km, 65.0° (Epoch: 27 March)

Event Time Altitude Azimuth Distance (km) Brightness Sun altitude
Rises 17:36:58 0° 200° (SSW) 2,715 6.9 -9.6°
Reaches altitude 10° 17:39:08 10° 196° (SSW) 1,852 5.9 -10.0°
Maximum altitude 17:43:12 53° 119° (ESE) 723 3.1 -10.7°
Enters shadow 17:47:22 11° 43° (NE) 1,903 5.1 -11.4°
